Weather History for Brownsville, TX

Change the Weather History Date:

Monday, August 19, 2013

  Actual Average Record
Temperature  
Mean Temperature 85 °F 85 °F  
Max Temperature 96 °F 95 °F 100 °F (1915)
Min Temperature 73 °F 76 °F 70 °F (1910)
Degree Days  
Heating Degree Days 0 0  
Month to date heating degree days 0 0  
Since 1 June heating degree days 0 0  
Since 1 July heating degree days 0 0  
Cooling Degree Days 20 20  
Month to date cooling degree days 421 396  
Year to date cooling degree days 2798 2674  
Since 1 June cooling degree days 1676 1581  
Growing Degree Days 34 (Base 50)    
Moisture  
Dew Point 72 °F    
Average Humidity 68    
Maximum Humidity 94    
Minimum Humidity 42    
Precipitation  
Precipitation 0.00 in 0.08 in 2.72 in (1992)
Month to date precipitation 0.09 1.22  
Year to date precipitation 8.67 13.59  
Sea Level Pressure  
Sea Level Pressure 29.94 in    
Wind  
Wind Speed 7 mph (NE)    
Max Wind Speed 18 mph    
Max Gust Speed 25 mph    
Visibility 10 miles    
Events      
T = Trace of Precipitation, MM = Missing Value Source: NWS Daily Summary

Daily Weather History Graph

Daily Weather History Graph

Search for Another Location

Airport:

Trip Planner

Search our weather history database for the weather conditions in past years. The results will help you decide how hot, cold, wet, or windy it might be!

Date:

Astronomy

Aug. 19, 2013 Rise Set
Actual Time 7:04 AM CDT 8:01 PM CDT
Civil Twilight 6:40 AM CDT 8:25 PM CDT
Nautical Twilight 6:12 AM CDT 8:53 PM CDT
Astronomical Twilight 5:43 AM CDT 9:22 PM CDT
Moon 6:53 PM CDT (8/19) 5:28 AM CDT (8/19)
Length of Visible Light 13h 44m
Length of Day
12h 57m
Waxing Gibbous, 97% of the Moon is Illuminated
Aug 19
Waxing Gibbous
Aug 20
Full
Aug 28
Last Quarter
Sep 5
New
Sep 12
First Quarter

Hourly Weather History & Observations

Time (CDT) Temp. Heat Index Dew Point Humidity Pressure Visibility Wind Dir Wind Speed Gust Speed Precip Events Conditions
12:53 AM 75.9 °F - 72.0 °F 87% 29.97 in 10.0 mi Calm Calm - N/A   Clear
1:53 AM 77.0 °F - 72.0 °F 84% 29.96 in 10.0 mi Calm Calm - N/A   Clear
2:53 AM 75.9 °F - 72.0 °F 87% 29.95 in 10.0 mi Calm Calm - N/A   Clear
3:53 AM 75.0 °F - 72.0 °F 90% 29.94 in 10.0 mi NNW 4.6 mph - N/A   Clear
4:53 AM 75.0 °F - 72.0 °F 90% 29.93 in 10.0 mi North 3.5 mph - N/A   Clear
5:53 AM 73.9 °F - 72.0 °F 93% 29.93 in 10.0 mi Calm Calm - N/A   Scattered Clouds
6:53 AM 73.9 °F - 72.0 °F 93% 29.95 in 10.0 mi NNW 3.5 mph - N/A   Clear
7:53 AM 75.9 °F - 73.0 °F 91% 29.97 in 10.0 mi North 3.5 mph - N/A   Clear
8:53 AM 82.9 °F 89.4 °F 73.9 °F 74% 29.98 in 10.0 mi North 5.8 mph - N/A   Clear
9:53 AM 88.0 °F 94.7 °F 72.0 °F 59% 29.99 in 10.0 mi Variable 4.6 mph - N/A   Scattered Clouds
10:53 AM 90.0 °F 94.5 °F 69.1 °F 50% 29.99 in 10.0 mi Variable 3.5 mph - N/A   Partly Cloudy
11:53 AM 91.9 °F 96.9 °F 69.1 °F 47% 29.99 in 10.0 mi NNE 8.1 mph - N/A   Clear
12:53 PM 93.9 °F 99.1 °F 69.1 °F 44% 29.97 in 10.0 mi NNE 10.4 mph - N/A   Partly Cloudy
1:53 PM 95.0 °F 99.5 °F 68.0 °F 41% 29.95 in 10.0 mi NE 10.4 mph 21.9 mph N/A   Clear
2:53 PM 95.0 °F 99.5 °F 68.0 °F 41% 29.93 in 10.0 mi North 10.4 mph 19.6 mph N/A   Clear
3:53 PM 93.9 °F 99.1 °F 69.1 °F 44% 29.91 in 10.0 mi NE 12.7 mph 25.3 mph N/A   Clear
4:53 PM 93.0 °F 97.9 °F 69.1 °F 45% 29.90 in 10.0 mi NE 16.1 mph 21.9 mph N/A   Clear
5:53 PM 91.0 °F 98.2 °F 72.0 °F 53% 29.89 in 10.0 mi NE 15.0 mph 23.0 mph N/A   Clear
6:53 PM 88.0 °F 95.6 °F 73.0 °F 61% 29.90 in 10.0 mi ENE 12.7 mph - N/A   Clear
7:53 PM 84.9 °F 92.1 °F 73.9 °F 69% 29.91 in 10.0 mi ENE 9.2 mph - N/A   Clear
8:53 PM 82.9 °F 90.2 °F 75.0 °F 77% 29.92 in 10.0 mi ENE 6.9 mph - N/A   Clear
9:53 PM 81.0 °F 86.7 °F 75.0 °F 82% 29.93 in 10.0 mi East 3.5 mph - N/A   Clear
10:53 PM 81.0 °F 86.7 °F 75.0 °F 82% 29.94 in 10.0 mi ESE 4.6 mph - N/A   Clear
11:53 PM 80.1 °F 85.1 °F 75.0 °F 85% 29.94 in 10.0 mi ESE 3.5 mph - N/A   Clear